Branson, MO

6:23 AM CDT on April 24, 2017 (GMT -0500)
Branson

Weather History for KBBG - September, 2013

Change the Weather History Date:

Friday, September 13, 2013

  Actual Average (KHRO) Record (KHRO)
Temperature  
Mean Temperature 70 °F -  
Max Temperature 77 °F 80 °F 100 °F (1939)
Min Temperature 62 °F 61 °F 32 °F (1902)
Cooling Degree Days 4    
Growing Degree Days 20 (Base 50)    
Moisture  
Dew Point 54 °F    
Average Humidity 61    
Maximum Humidity 83    
Minimum Humidity 38    
Precipitation  
Precipitation 0.00 in - - ()
Sea Level Pressure  
Sea Level Pressure 30.10 in    
Wind  
Wind Speed 2 mph (NE)    
Max Wind Speed 12 mph    
Max Gust Speed -    
Visibility 10 miles    
Events      
Averages and records for this station are not official NWS values.
T = Trace of Precipitation, MM = Missing Value Source: NWS Daily Summary

Daily Weather History Graph

Daily Weather History Graph

Search for Another Location

Airport or City:

Trip Planner

Search our weather history database for the weather conditions in past years. The results will help you decide how hot, cold, wet, or windy it might be!

Date:

Astronomy

Sep. 13, 2013 Rise Set
Actual Time 6:53 AM CDT 7:22 PM CDT
Civil Twilight 6:27 AM CDT 7:48 PM CDT
Nautical Twilight 5:57 AM CDT 8:19 PM CDT
Astronomical Twilight 5:26 AM CDT 8:50 PM CDT
Moon 3:06 PM CDT (9/13) 12:30 AM CDT (9/13)
Length of Visible Light 13h 20m
Length of Day
12h 29m
First Quarter, 61% of the Moon is Illuminated
Sep 13
First Quarter
Sep 19
Full
Sep 26
Last Quarter
Oct 4
New
Oct 11
First Quarter

Hourly Weather History & Observations

Time (CDT) Temp. Dew Point Humidity Pressure Visibility Wind Dir Wind Speed Gust Speed Precip Events Conditions
12:15 AM 73.4 °F 64.4 °F 73% 30.09 in 10.0 mi Calm Calm - N/A   Overcast
12:35 AM 73.4 °F 64.4 °F 73% 30.09 in 10.0 mi Calm Calm - N/A   Overcast
12:55 AM 71.6 °F 64.4 °F 78% 30.09 in 10.0 mi Calm Calm - N/A   Overcast
1:15 AM 71.6 °F 64.4 °F 78% 30.09 in 10.0 mi NNW 5.8 mph - N/A   Overcast
1:35 AM 71.6 °F 64.4 °F 78% 30.09 in 10.0 mi North 3.5 mph - N/A   Mostly Cloudy
1:55 AM 69.8 °F 64.4 °F 83% 30.09 in 10.0 mi North 5.8 mph - N/A   Clear
2:15 AM 69.8 °F 62.6 °F 78% 30.09 in 10.0 mi NE 4.6 mph - N/A   Clear
2:35 AM 69.8 °F 62.6 °F 78% 30.10 in 10.0 mi ENE 4.6 mph - N/A   Clear
2:55 AM 68.0 °F 60.8 °F 78% 30.10 in 10.0 mi ENE 6.9 mph - N/A   Clear
3:15 AM 68.0 °F 59.0 °F 73% 30.10 in 10.0 mi ENE 6.9 mph - N/A   Clear
3:35 AM 68.0 °F 57.2 °F 68% 30.10 in 10.0 mi NE 6.9 mph - N/A   Clear
3:55 AM 68.0 °F 57.2 °F 68% 30.11 in 10.0 mi Calm Calm - N/A   Clear
4:15 AM 68.0 °F 55.4 °F 64% 30.10 in 10.0 mi NE 3.5 mph - N/A   Clear
4:35 AM 66.2 °F 55.4 °F 68% 30.10 in 10.0 mi Calm Calm - N/A   Clear
4:55 AM 66.2 °F 53.6 °F 64% 30.11 in 10.0 mi Calm Calm - N/A   Clear
5:15 AM 66.2 °F 53.6 °F 64% 30.11 in 10.0 mi Calm Calm - N/A   Partly Cloudy
5:35 AM 64.4 °F 53.6 °F 68% 30.11 in 10.0 mi Calm Calm - N/A   Partly Cloudy
5:55 AM 64.4 °F 51.8 °F 64% 30.11 in 10.0 mi Calm Calm - N/A   Partly Cloudy
6:15 AM 64.4 °F 53.6 °F 68% 30.12 in 10.0 mi Calm Calm - N/A   Partly Cloudy
6:35 AM 62.6 °F 53.6 °F 72% 30.12 in 10.0 mi Calm Calm - N/A   Clear
6:45 AM 62.6 °F 53.6 °F 72% 30.13 in 10.0 mi Calm Calm - N/A   Mostly Cloudy
7:45 AM 62.6 °F 50.0 °F 63% 30.13 in 10.0 mi Calm Calm - N/A   Mostly Cloudy
8:45 AM 62.6 °F 51.8 °F 68% 30.14 in 10.0 mi Calm Calm - N/A   Mostly Cloudy
9:45 AM 68.0 °F 50.0 °F 52% 30.15 in 10.0 mi East 6.9 mph - N/A   Mostly Cloudy
10:45 AM 69.8 °F 50.0 °F 49% 30.15 in 10.0 mi East 4.6 mph - N/A   Mostly Cloudy
11:47 AM 73.4 °F 48.2 °F 41% 30.14 in 10.0 mi ENE 3.5 mph - N/A   Mostly Cloudy
12:54 PM 71.6 °F 50.0 °F 46% 30.11 in 10.0 mi East 4.6 mph - N/A   Mostly Cloudy
1:45 PM 71.6 °F 50.0 °F 46% 30.10 in 10.0 mi East 4.6 mph - N/A   Mostly Cloudy
2:45 PM 73.4 °F 46.4 °F 38% 30.08 in 10.0 mi ESE 4.6 mph - N/A   Mostly Cloudy
3:46 PM 77.0 °F 50.0 °F 39% 30.07 in 10.0 mi NNW 11.5 mph - N/A   Mostly Cloudy
4:46 PM 77.0 °F 50.0 °F 39% 30.05 in 10.0 mi NE 9.2 mph - N/A   Mostly Cloudy
5:50 PM 75.2 °F 50.0 °F 41% 30.05 in 10.0 mi NNE 9.2 mph - N/A   Scattered Clouds
6:55 PM 73.4 °F 48.2 °F 41% 30.05 in 10.0 mi NNE 5.8 mph - N/A   Scattered Clouds
7:54 PM 68.0 °F 48.2 °F 49% 30.06 in 10.0 mi Calm Calm - N/A   Scattered Clouds
8:47 PM 66.2 °F 50.0 °F 56% 30.07 in 10.0 mi ESE 3.5 mph - N/A   Scattered Clouds
9:15 PM 66.2 °F 50.0 °F 56% 30.08 in 10.0 mi Calm Calm - N/A   Clear
9:35 PM 66.2 °F 48.2 °F 52% 30.08 in 10.0 mi Calm Calm - N/A   Clear
9:55 PM 64.4 °F 48.2 °F 56% 30.08 in 10.0 mi Calm Calm - N/A   Clear
10:15 PM 64.4 °F 48.2 °F 56% 30.08 in 10.0 mi Calm Calm - N/A   Clear
10:35 PM 64.4 °F 48.2 °F 56% 30.08 in 10.0 mi Calm Calm - N/A   Clear
10:55 PM 64.4 °F 48.2 °F 56% 30.09 in 10.0 mi Calm Calm - N/A   Clear
11:15 PM 62.6 °F 50.0 °F 63% 30.08 in 10.0 mi Calm Calm - N/A   Clear
11:35 PM 62.6 °F 50.0 °F 63% 30.08 in 10.0 mi Calm Calm - N/A   Clear
11:55 PM 62.6 °F 50.0 °F 63% 30.09 in 10.0 mi Calm Calm - N/A   Clear